Wind_Speed
15 15 15 17 18 17 15 13 13 14 15 15 15 14 14 13 12 11 10 9 8 8 7 7 7 7 7 7 7 7 6 7 6 6 6 6 6 7 7 8 8 9 10
14 14 15 16 16 17 17 15 13 13 15 16 17 16 15 14 13 11 11 11 11 11 12 10 10 10 9 8 8 9 10 9 8 7 6 6 5 5 6 7 8 8 8
16 16 15 17 16 16 17 16 15 15 16 17 17 17 17 16 15 14 13 12 13 13 13 13 13 13 13 12 11 11 11 11 12 11 10 8 7 7 6 5 6 7 7
16 16 17 18 18 17 18 18 18 18 18 18 19 19 18 18 17 16 15 15 15 15 15 16 16 16 16 15 15 13 14 14 13 14 13 13 11 10 9 8 7 7 8
17 17 17 17 17 17 18 18 18 18 18 19 20 20 20 20 19 20 19 20 20 19 19 19 18 19 18 18 17 17 18 17 17 17 15 16 16 15 13 12 10 10 9
19 19 20 19 19 19 18 18 19 19 19 19 20 20 20 21 21 22 22 22 22 22 23 20 21 20 20 21 21 22 21 21 20 20 18 18 18 18 18 17 14 13 12
21 21 21 21 22 23 21 22 23 23 22 22 22 23 23 23 23 22 22 22 22 23 23 23 23 24 22 23 23 24 24 24 24 24 22 22 22 21 20 20 19 16 15
23 24 24 23 24 24 24 25 26 26 26 25 26 27 27 27 27 27 26 26 26 26 26 26 26 26 26 27 27 27 28 28 28 26 25 25 25 25 23 22 22 20 18
24 25 24 26 26 27 27 28 28 28 28 28 28 29 29 29 30 30 30 29 30 31 31 30 29 28 28 29 29 29 29 29 29 28 28 27 26 25 26 25 24 23 22
26 27 28 28 29 30 28 29 28 29 29 30 30 30 30 30 30 30 30 30 30 30 31 31 30 30 29 29 30 30 30 30 30 29 29 28 28 27 27 25 25 25 23
24 24 25 26 27 28 29 31 31 32 33 33 33 33 33 33 33 33 32 31 31 31 32 33 33 32 32 32 32 32 31 30 30 30 30 29 29 29 26 26 26 25 24
25 26 27 29 29 28 30 31 32 32 33 34 34 35 35 35 36 36 36 36 36 35 35 34 35 35 34 32 32 32 32 32 31 31 31 32 31 31 29 29 28 28 27
26 27 28 29 30 32 32 33 34 34 36 36 37 37 38 38 38 37 36 36 35 34 33 33 33 33 32 31 32 31 30 31 30 29 28 27 27 28 28 28 28 28 27
25 26 28 30 31 33 34 34 35 36 36 36 37 37 37 37 37 37 37 36 35 34 34 33 33 33 33 32 32 32 32 32 32 32 29 29 29 29 27 27 26 25 25
27 29 30 31 32 33 34 35 36 36 36 37 37 37 37 38 38 38 38 38 38 37 37 37 36 36 36 36 35 35 35 34 34 34 33 32 32 31 31 30 29 29 27
32 33 34 35 36 37 38 39 39 40 41 41 41 41 41 41 41 42 41 41 41 40 39 39 39 39 39 38 38 38 38 38 37 36 35 36 34 34 33 32 31 30 29
37 38 39 40 41 42 42 43 44 44 43 43 43 44 44 44 44 44 44 43 44 43 43 42 42 42 42 42 41 41 40 40 39 38 38 37 37 36 36 35 35 33 32
39 40 41 42 43 44 45 45 46 46 46 46 46 47 47 47 47 47 47 47 47 46 46 45 45 45 44 44 43 42 42 41 41 41 41 41 41 41 41 40 39 39 38
41 43 44 45 46 47 48 49 49 50 50 50 50 51 51 51 51 51 51 50 50 49 49 48 47 47 46 46 46 46 46 46 46 46 46 46 47 47 47 47 46 45 45
44 46 47 48 49 50 51 52 53 54 54 55 55 55 55 55 55 55 55 54 53 52 52 51 51 50 51 51 51 51 51 51 51 50 50 49 49 49 50 49 48 48 47
47 48 50 51 52 53 54 55 56 57 58 58 59 59 59 59 59 59 59 58 57 57 56 56 55 55 56 56 55 54 54 53 53 52 51 51 51 51 51 51 51 51 50
50 52 52 53 54 55 56 57 58 59 60 60 61 61 62 62 63 63 63 63 62 62 61 61 61 61 60 59 59 58 57 56 54 54 53 53 52 51 51 51 52 52 52
53 55 57 58 59 59 60 60 61 62 63 63 64 65 65 65 66 66 66 66 66 66 66 66 66 66 65 64 63 62 61 61 59 59 57 57 56 55 55 54 53 54 53
50 53 55 57 58 61 64 66 66 66 66 66 67 68 68 69 69 70 70 70 71 71 70 70 69 69 69 69 68 67 66 65 63 62 63 61 60 60 59 58 57 57 56
49 51 54 56 58 60 62 63 65 68 68 71 72 72 72 73 73 73 73 74 74 74 74 73 73 72 72 73 73 72 71 70 69 67 65 65 66 65 64 64 64 62 60
48 51 54 56 59 62 64 65 67 68 70 72 73 71 74 77 77 77 77 76 76 76 76 76 75 75 75 76 77 77 76 76 74 73 72 71 68 69 69 69 69 68 66
Wind_Direction
205 213 219 222 225 234 239 245 254 250 240 238 236 241 244 241 242 247 249 252 256 255 262 275 295 307 322 334 343 358 12 12 22 28 45 47 41 32 34 22 22 27 24
216 218 226 228 231 232 239 243 244 248 246 242 239 242 249 254 258 263 262 262 262 262 264 271 276 285 291 297 308 321 328 330 333 346 350 3 22 11 13 13 1 12 6
219 223 227 232 234 238 240 247 251 249 251 251 251 248 249 256 262 268 271 272 272 273 274 275 274 276 284 289 299 303 302 304 309 316 319 327 333 330 333 349 342 347 343
221 229 227 231 236 243 248 249 251 254 255 255 255 257 259 260 262 264 265 268 271 273 274 274 277 281 283 285 284 287 289 290 294 296 302 305 306 304 307 312 317 321 325
230 227 234 241 244 243 248 254 256 257 260 262 262 261 263 265 266 268 269 267 266 266 268 269 270 271 275 279 281 281 281 282 282 284 288 293 297 296 295 294 296 294 299
239 242 241 243 247 248 251 253 256 256 258 261 263 263 262 262 261 263 264 265 266 266 266 269 270 272 273 275 278 278 280 281 283 286 287 289 288 288 290 289 287 290 289
239 243 244 247 247 249 249 248 251 254 254 257 259 260 263 262 263 263 261 260 261 262 264 264 265 268 271 272 273 274 276 277 278 278 284 281 282 284 287 288 286 284 283
249 251 252 252 253 253 254 255 257 257 256 256 255 256 257 260 261 261 261 262 262 262 261 261 263 263 263 265 268 269 271 272 272 274 276 279 280 281 281 282 283 282 279
255 257 256 260 258 258 258 258 259 260 261 261 260 261 259 259 261 262 262 261 262 263 263 264 264 265 267 266 265 267 270 272 273 274 274 276 277 277 279 280 281 282 280
259 260 260 260 262 262 262 263 263 264 264 264 264 264 264 264 263 261 260 262 264 265 266 265 266 269 269 268 268 268 268 268 269 271 273 273 273 273 275 279 281 280 279
259 262 262 261 260 261 261 261 261 263 264 264 265 265 265 268 268 267 267 266 266 267 269 271 271 269 270 271 271 271 270 270 271 271 271 272 273 273 273 275 275 279 282
259 260 262 264 263 261 261 262 263 263 263 264 264 265 265 264 264 266 266 266 265 267 267 266 267 269 269 268 269 269 269 268 269 269 270 271 271 272 271 272 274 275 277
260 262 262 262 264 265 263 263 264 265 264 264 265 266 265 266 266 266 266 264 264 264 263 263 263 262 263 264 265 266 267 268 268 267 269 272 273 276 275 274 272 271 270
264 264 265 266 266 265 267 267 267 268 268 267 267 268 268 267 267 267 267 268 267 267 266 265 263 263 262 262 262 263 262 263 266 265 264 267 268 269 272 273 275 275 272
272 271 270 270 270 271 271 271 271 271 271 271 270 269 269 268 268 268 268 268 267 267 266 265 265 265 265 264 264 263 263 263 261 263 263 264 263 264 265 266 267 267 270
271 271 272 272 272 272 271 271 271 271 271 271 272 272 272 272 271 271 270 268 267 266 265 266 265 265 265 265 265 264 264 263 263 262 261 260 261 260 261 262 261 263 264
274 276 276 274 272 272 271 271 270 269 269 270 270 270 270 270 270 269 269 269 268 268 267 266 267 266 266 265 265 264 264 264 263 262 261 259 259 260 260 260 260 261 261
275 274 273 274 273 273 272 271 271 270 270 269 269 269 269 268 268 267 267 266 266 266 266 265 265 265 264 263 262 262 261 260 260 261 261 262 261 260 260 260 259 260 261
274 274 274 273 272 272 272 272 273 273 272 272 271 270 269 268 268 268 267 267 266 266 265 264 264 263 262 261 260 260 259 260 260 260 260 260 261 262 263 263 263 263 262
274 273 273 273 272 272 272 271 271 272 272 271 271 271 271 271 270 268 267 267 266 265 264 263 262 261 261 261 260 260 260 260 259 259 259 259 259 260 261 261 262 262 262
278 277 277 276 275 274 274 273 272 271 271 270 270 269 269 268 267 267 267 267 266 264 263 263 263 263 263 262 261 260 260 259 260 260 260 260 260 260 260 261 261 261 262
278 278 278 278 278 277 276 275 274 273 272 271 269 268 266 266 266 265 265 264 264 264 263 263 264 264 263 262 261 261 260 261 262 262 263 263 262 261 260 260 260 259 259
282 282 281 280 279 278 277 275 274 272 270 269 268 267 266 266 265 264 264 264 263 263 263 263 263 263 263 262 260 260 261 262 262 262 263 263 264 263 262 262 262 261 260
282 282 281 281 281 280 279 277 274 272 270 268 267 266 265 264 264 263 263 263 263 263 263 263 264 263 262 261 261 261 261 262 263 265 266 266 265 265 264 263 262 261 260
289 287 285 284 283 280 279 280 280 277 274 272 269 267 266 265 264 264 263 263 263 263 263 263 263 262 262 261 261 261 262 263 263 263 264 267 268 268 268 266 264 262 260
293 292 290 288 285 283 281 280 278 276 275 274 273 274 271 267 264 264 264 264 264 264 264 264 264 263 262 262 262 262 263 263 264 264 265 264 264 266 267 267 267 266 264
Height
5850 5852 5854 5855 5856 5857 5858 5859 5860 5861 5862 5862 5863 5864 5865 5866 5866 5866 5866 5866 5866 5867 5867 5867 5867 5867 5867 5866 5867 5867 5866 5867 5866 5866 5865 5864 5864 5864 5863 5863 5862 5860 5859
5850 5852 5853 5854 5855 5856 5857 5858 5859 5860 5861 5861 5862 5862 5863 5864 5864 5865 5865 5866 5866 5866 5868 5867 5868 5867 5867 5867 5867 5866 5865 5865 5866 5865 5866 5865 5863 5864 5863 5863 5862 5861 5860
5849 5850 5851 5852 5853 5854 5856 5857 5858 5859 5859 5860 5861 5861 5862 5862 5862 5864 5864 5865 5866 5866 5866 5866 5867 5867 5867 5867 5866 5865 5866 5865 5865 5863 5864 5863 5863 5864 5863 5862 5861 5861 5861
5848 5849 5850 5850 5851 5852 5854 5855 5856 5857 5858 5858 5859 5859 5860 5860 5861 5861 5862 5863 5863 5864 5864 5864 5864 5864 5864 5865 5865 5864 5864 5864 5863 5863 5862 5862 5862 5862 5861 5860 5859 5859 5859
5846 5847 5849 5849 5850 5850 5851 5853 5853 5854 5855 5856 5856 5857 5857 5858 5858 5859 5859 5860 5860 5861 5862 5862 5862 5862 5862 5862 5862 5863 5863 5863 5862 5862 5861 5861 5860 5861 5860 5858 5858 5858 5858
5844 5845 5846 5847 5848 5848 5849 5850 5850 5851 5851 5852 5853 5854 5854 5855 5856 5856 5857 5857 5857 5858 5858 5858 5859 5859 5860 5860 5859 5860 5860 5860 5860 5860 5859 5859 5859 5859 5858 5857 5855 5856 5857
5841 5842 5844 5845 5846 5846 5846 5847 5847 5848 5848 5849 5850 5851 5851 5852 5852 5853 5854 5854 5854 5855 5855 5855 5855 5856 5856 5856 5857 5857 5856 5857 5857 5857 5858 5856 5856 5855 5855 5855 5855 5854 5854
5839 5839 5840 5842 5843 5843 5844 5844 5845 5845 5846 5847 5847 5847 5847 5848 5849 5849 5849 5850 5850 5851 5851 5851 5851 5852 5853 5853 5852 5852 5852 5852 5853 5853 5852 5853 5852 5852 5852 5852 5852 5852 5851
5835 5837 5837 5838 5840 5840 5840 5841 5841 5842 5842 5843 5844 5844 5844 5844 5845 5845 5846 5846 5846 5846 5847 5847 5847 5847 5847 5848 5848 5848 5848 5848 5848 5848 5848 5848 5848 5849 5848 5848 5849 5849 5849
5832 5834 5834 5835 5837 5837 5836 5838 5839 5838 5838 5839 5840 5840 5840 5840 5840 5841 5841 5842 5842 5841 5841 5842 5842 5842 5842 5842 5843 5843 5843 5843 5843 5843 5844 5843 5843 5844 5845 5845 5845 5845 5845
5829 5829 5830 5831 5833 5832 5832 5833 5834 5834 5834 5834 5835 5834 5834 5834 5834 5835 5835 5836 5836 5836 5836 5836 5836 5837 5836 5836 5837 5838 5837 5837 5837 5838 5838 5838 5839 5839 5839 5840 5840 5841 5842
5824 5825 5825 5825 5826 5826 5827 5827 5828 5829 5829 5829 5829 5829 5829 5829 5829 5829 5829 5830 5830 5830 5831 5830 5830 5831 5831 5830 5830 5831 5832 5831 5831 5832 5832 5833 5833 5833 5833 5834 5835 5835 5836
5820 5820 5820 5820 5820 5821 5821 5821 5822 5822 5822 5822 5822 5822 5822 5823 5823 5823 5823 5823 5824 5823 5824 5824 5824 5825 5825 5825 5825 5825 5825 5826 5825 5826 5826 5827 5828 5828 5829 5829 5830 5829 5830
5816 5816 5815 5815 5815 5815 5816 5815 5815 5816 5815 5815 5815 5815 5815 5816 5816 5816 5816 5816 5816 5817 5817 5817 5818 5818 5818 5818 5819 5819 5819 5820 5820 5820 5822 5822 5822 5823 5823 5824 5825 5826 5824
5812 5811 5811 5811 5810 5809 5809 5809 5809 5809 5808 5808 5808 5808 5808 5809 5809 5809 5809 5809 5809 5809 5809 5810 5810 5811 5811 5812 5811 5812 5812 5812 5814 5814 5815 5815 5816 5817 5817 5818 5818 5818 5820
5806 5806 5805 5804 5804 5803 5803 5802 5802 5801 5801 5801 5800 5800 5800 5800 5800 5801 5800 5801 5801 5801 5801 5802 5802 5803 5803 5803 5803 5803 5804 5805 5805 5806 5808 5807 5810 5809 5809 5810 5810 5812 5812
5800 5799 5798 5797 5797 5796 5794 5794 5794 5794 5793 5792 5792 5792 5792 5791 5792 5792 5792 5792 5793 5793 5793 5793 5793 5794 5794 5795 5795 5795 5795 5796 5797 5798 5799 5800 5801 5801 5802 5803 5803 5804 5804
5793 5791 5790 5788 5787 5787 5787 5786 5786 5785 5785 5784 5783 5782 5782 5782 5782 5782 5783 5783 5783 5784 5784 5784 5784 5785 5785 5785 5786 5786 5787 5788 5789 5790 5791 5791 5792 5794 5794 5795 5796 5796 5797
5784 5782 5781 5780 5780 5778 5777 5776 5775 5775 5774 5773 5773 5772 5772 5772 5771 5771 5772 5772 5772 5773 5773 5773 5774 5774 5775 5775 5776 5776 5777 5778 5779 5780 5781 5782 5783 5784 5784 5785 5786 5787 5788
5776 5775 5773 5772 5770 5769 5768 5767 5766 5765 5763 5762 5761 5760 5759 5759 5759 5760 5759 5760 5760 5761 5761 5761 5762 5763 5764 5765 5765 5765 5766 5767 5768 5769 5769 5770 5771 5773 5774 5774 5775 5776 5777
5766 5764 5763 5762 5760 5758 5757 5756 5754 5753 5751 5750 5749 5747 5747 5746 5746 5746 5746 5746 5747 5748 5748 5749 5749 5750 5750 5751 5752 5752 5753 5755 5756 5756 5757 5758 5760 5760 5762 5763 5764 5765 5765
5754 5752 5750 5749 5747 5746 5744 5742 5741 5739 5737 5736 5735 5734 5733 5733 5733 5733 5733 5733 5733 5734 5734 5735 5735 5736 5736 5736 5736 5737 5739 5740 5741 5742 5744 5745 5746 5747 5749 5750 5752 5753 5754
5744 5742 5740 5737 5735 5733 5731 5729 5726 5724 5723 5721 5720 5719 5718 5717 5717 5717 5718 5718 5719 5719 5718 5719 5719 5720 5720 5721 5722 5723 5724 5725 5726 5727 5728 5730 5731 5733 5735 5736 5738 5739 5741
5732 5729 5726 5724 5722 5719 5717 5714 5711 5709 5707 5704 5703 5702 5701 5700 5700 5699 5699 5700 5700 5700 5701 5702 5703 5704 5705 5705 5707 5708 5708 5710 5710 5711 5711 5713 5715 5717 5719 5721 5724 5725 5727
5720 5717 5714 5711 5708 5705 5702 5700 5697 5695 5692 5689 5686 5684 5683 5682 5681 5681 5680 5681 5681 5682 5682 5683 5684 5685 5686 5687 5688 5689 5690 5692 5693 5695 5697 5698 5697 5699 5701 5704 5707 5710 5712
5709 5705 5701 5698 5694 5691 5688 5685 5681 5678 5676 5673 5670 5667 5664 5662 5661 5661 5660 5661 5662 5662 5663 5663 5663 5664 5665 5666 5667 5668 5670 5672 5674 5676 5679 5681 5683 5682 5683 5685 5687 5691 5695